This is the latest recevied weather packets stored in our database for station/object OK1TBM-13. If no packets are shown the sender has not sent any weather packets the latest 10 day(s).
| Time | Temp. | Humidity | Pressure | Rain* | Wind** | Luminosity | Snow |
|---|---|---|---|---|---|---|---|
| 1788098701 | 28.33° C | 45% | 1013.2 hPa | 0 mm | - | 482 W/m² | - |
| 1788098401 | 28.33° C | 46% | 1013.2 hPa | 0 mm | - | 498 W/m² | - |
| 1788098106 | 28.89° C | 45% | 1013.2 hPa | 0 mm | - | 531 W/m² | - |
| 1788097801 | 28.33° C | 45% | 1013.6 hPa | 0 mm | - | 550 W/m² | - |
| 1788097502 | 29.44° C | 45% | 1013.6 hPa | 0 mm | - | 583 W/m² | - |
| 1788097202 | 28.89° C | 45% | 1013.6 hPa | 0 mm | - | 608 W/m² | - |
| 1788096901 | 29.44° C | 45% | 1013.6 hPa | 0 mm | - | 680 W/m² | - |
| 1788096601 | 28.89° C | 45% | 1013.6 hPa | 0 mm | - | 752 W/m² | - |
| 1788096301 | 28.33° C | 47% | 1013.6 hPa | 0 mm | - | 794 W/m² | - |
| 1788095701 | 26.67° C | 49% | 1013.9 hPa | 0 mm | - | 385 W/m² | - |
| 1788095401 | 26.67° C | 49% | 1013.9 hPa | 0 mm | - | 312 W/m² | - |
| 1788095101 | 27.22° C | 48% | 1013.9 hPa | 0 mm | - | 267 W/m² | - |
| 1788094802 | 27.78° C | 46% | 1013.6 hPa | 0 mm | - | 404 W/m² | - |
| 1788094502 | 27.78° C | 46% | 1013.6 hPa | 0 mm | - | 582 W/m² | - |
| 1788093901 | 28.89° C | 45% | 1013.9 hPa | 0 mm | - | 694 W/m² | - |
| 1788093601 | 27.78° C | 45% | 1013.9 hPa | 0 mm | - | 602 W/m² | - |
| 1788093307 | 26.67° C | 47% | 1013.9 hPa | 0 mm | - | 274 W/m² | - |
| 1788093002 | 26.67° C | 46% | 1013.9 hPa | 0 mm | - | 214 W/m² | - |
| 1788092702 | 27.22° C | 45% | 1013.9 hPa | 0 mm | - | 212 W/m² | - |
| 1788092401 | 28.33° C | 43% | 1013.9 hPa | 0 mm | - | 281 W/m² | - |
| 1788092101 | 27.78° C | 44% | 1013.9 hPa | 0 mm | - | 315 W/m² | - |
| 1788091802 | 27.78° C | 45% | 1013.9 hPa | 0 mm | - | 238 W/m² | - |
| 1788091501 | 28.33° C | 45% | 1013.9 hPa | 0 mm | - | 468 W/m² | - |
| 1788091201 | 28.33° C | 45% | 1013.9 hPa | 0 mm | - | 495 W/m² | - |
| 1788090901 | 28.89° C | 42% | 1013.9 hPa | 0 mm | - | 805 W/m² | - |
* Rain latest hour (hover to see other rain measurements)
** Current wind speed in m/s (hover to see current wind gust speed)